Location: Isles
(48.9125°N, 2.8272°E)
Time: 14:35:51
(UTC+00:00)

USA 290 - Pass Details

Date: 03 February 2023
Orbit: 401 x 409 km, 73.6° (Epoch: 13 March)

Event Time Altitude Azimuth Distance (km) Brightness Sun altitude
Rises 17:27:36 0° 213° (SSW) 2,340 6.9 -6.8°
Reaches altitude 10° 17:29:40 10° 218° (SW) 1,485 6.0 -7.1°
Maximum altitude 17:32:52 53° 296° (WNW) 522 3.1 -7.6°
Drops below altitude 10° 17:36:07 10° 15° (NNE) 1,506 4.8 -8.1°
Enters shadow 17:38:16 - 21° (NNE) 2,399 5.7 -8.4°
